This is the latest recevied weather packets stored in our database for station/object KD4EG. If no packets are shown the sender has not sent any weather packets the latest 10 day(s).
| Time | Temp. | Humidity | Pressure | Rain* | Wind** | Luminosity | Snow |
|---|---|---|---|---|---|---|---|
| 1777765554 | 12.22° C | 47% | 1015.7 hPa | 0 mm | - | 16 W/m² | - |
| 1777765252 | 12.22° C | 46% | 1015.7 hPa | 0 mm | - | 18 W/m² | - |
| 1777764952 | 12.22° C | 44% | 1015.5 hPa | 0 mm | - | 20 W/m² | - |
| 1777764649 | 12.78° C | 44% | 1015.5 hPa | 0 mm | - | 25 W/m² | - |
| 1777764345 | 12.78° C | 44% | 1015.5 hPa | 0 mm | - | 37 W/m² | - |
| 1777764043 | 12.22° C | 44% | 1015.4 hPa | 0 mm | - | 31 W/m² | - |
| 1777763739 | 12.78° C | 44% | 1015.4 hPa | 0 mm | - | 30 W/m² | - |
| 1777763437 | 12.78° C | 44% | 1015.3 hPa | 0 mm | - | 32 W/m² | - |
| 1777763136 | 13.33° C | 43% | 1015.5 hPa | 0 mm | - | 44 W/m² | - |
| 1777762834 | 13.33° C | 42% | 1015.3 hPa | 0 mm | - | 62 W/m² | - |
| 1777762529 | 13.33° C | 43% | 1015.2 hPa | 0 mm | - | 74 W/m² | - |
| 1777762226 | 13.89° C | 42% | 1015.2 hPa | 0 mm | - | 46 W/m² | - |
| 1777761922 | 13.89° C | 41% | 1015.2 hPa | 0 mm | - | 98 W/m² | - |
| 1777761620 | 14.44° C | 41% | 1015.1 hPa | 0 mm | - | 46 W/m² | - |
| 1777761317 | 13.89° C | 42% | 1015.1 hPa | 0 mm | - | 128 W/m² | - |
| 1777761015 | 13.89° C | 41% | 1015.3 hPa | 0 mm | - | 136 W/m² | - |
| 1777760712 | 14.44° C | 40% | 1015.3 hPa | 0 mm | - | 156 W/m² | - |
| 1777760409 | 15° C | 41% | 1014.8 hPa | 0 mm | - | 174 W/m² | - |
| 1777760104 | 15° C | 40% | 1015.1 hPa | 0 mm | - | 173 W/m² | - |
| 1777759802 | 15° C | 40% | 1014.7 hPa | 0 mm | - | 214 W/m² | - |
| 1777759497 | 15° C | 39% | 1014.7 hPa | 0 mm | - | 267 W/m² | - |
| 1777759194 | 15.56° C | 39% | 1014.6 hPa | 0 mm | - | 264 W/m² | - |
| 1777758891 | 15.56° C | 38% | 1014.6 hPa | 0 mm | - | 278 W/m² | - |
| 1777758588 | 15.56° C | 38% | 1014.5 hPa | 0 mm | - | 288 W/m² | - |
| 1777758285 | 15.56° C | 38% | 1014.7 hPa | 0 mm | - | 310 W/m² | - |
* Rain latest hour (hover to see other rain measurements)
** Current wind speed in m/s (hover to see current wind gust speed)